Powrót do katalogu

CZ-3A DEB

LostGTO
NORAD 36968·DEBRIS·🇨🇳 China

Wystrzelony Feb 2, 2007 z Xichang Satellite Launch Center

Loading…

TLE

NieaktualneSource: Space-Track

Epoka: Sep 15, 2025, 04:38 UTC

1 36968U 07003AE  25258.19357572  .00002185  00000-0  43434-2 0  9999
2 36968  25.1867 217.2825 7504278 223.0503  44.6484  1.96328396125014

Śledź CZ-3A DEB w czasie rzeczywistym z AllMySat

Download on the App Store